Regional Weather Roundup
Issued by NWS

Home | Current Version | Previous Version | Graphics & Text | Print | Product List | Glossary On
Versions: 1 2 3 4 5 6 7 8 9 10 11 12 13 14 15 16 17 18 19 20 21 22 23 24 25 26 27 28 29 30 31 32 33 34 35 36 37 38 39 40 41 42 43 44 45 46 47 48 49 50
000
ASUS43 KMKX 310011
RWRWI

WISCONSIN REGIONAL WEATHER ROUNDUP
NATIONAL WEATHER SERVICE MILWAUKEE/SULLIVAN WI
700 PM CDT THU JUL 30 2015

NOTE: "FAIR" INDICATES FEW OR NO CLOUDS BELOW 12,000 FEET WITH NO
SIGNIFICANT WEATHER AND/OR OBSTRUCTIONS TO VISIBILITY.

WIZ001-002-006>008-014>016-023>028-310100-
NORTHWEST WISCONSIN

CITY           SKY/WX    TMP DP  RH WIND       PRES   REMARKS
SUPERIOR ARPT  MOSUNNY   79  55  43 W14G20    29.91S HX  80
6HR MIN TEMP:  78; 6HR MAX TEMP:  83;

ASHLAND        SUNNY     80  53  39 W9G20     29.90S HX  80
6HR MIN TEMP:  72; 6HR MAX TEMP:  84;

HAYWARD        MOSUNNY   80  54  40 W7G20     29.95F HX  80
6HR MIN TEMP:  77; 6HR MAX TEMP:  82; 6HR PCP: TRACE;

SIREN          SUNNY     80  55  41 W7        29.97F HX  80
6HR MIN TEMP:  79; 6HR MAX TEMP:  83;

CUMBERLAND     SUNNY     77  54  44 W13       29.98F
RICE LAKE      SUNNY     78  55  44 W12       29.99F
6HR MIN TEMP:  76; 6HR MAX TEMP:  79;

CHETEK         SUNNY     79  57  46 W12G18    29.98S HX  80
6HR MIN TEMP:  78; 6HR MAX TEMP:  82;

LADYSMITH      SUNNY     79  56  45 W10       29.98F HX  80
6HR MIN TEMP:  79; 6HR MAX TEMP:  82;

EAU CLAIRE     SUNNY     81  57  43 W9        29.98F HX  81
6HR MIN TEMP:  81; 6HR MAX TEMP:  85;

MENOMONIE      SUNNY     82  54  38 W9        29.99F HX  81
6HR MIN TEMP:  82; 6HR MAX TEMP:  84;

NEW RICHMOND   SUNNY     80  53  39 W14G20    30.00F HX  80
6HR MIN TEMP:  79; 6HR MAX TEMP:  82;

OSCEOLA        MOSUNNY   79  55  44 W9        30.02S
6HR MIN TEMP:  79; 6HR MAX TEMP:  82;

$$

WIZ003>005-009-010-017-018-310100-
NORTH CENTRAL WISCONSIN

CITY           SKY/WX    TMP DP  RH WIND       PRES   REMARKS
MANITOWISH WTR MOSUNNY   70  61  72 S3        29.94S
ARBOR VITAE    PTSUNNY   77  61  57 SW9       29.94F
6HR MIN TEMP:  67; 6HR MAX TEMP:  80;

WOODRUFF       PTSUNNY   77  61  57 SW9       29.94F
6HR MIN TEMP:  67; 6HR MAX TEMP:  80;

RHINELANDER    SUNNY     74  57  55 SW7       29.97F
6HR MIN TEMP:  72; 6HR MAX TEMP:  83;

EAGLE RIVER    SUNNY     68  58  68 SW6       29.94F
6HR MIN TEMP:  61; 6HR MAX TEMP:  80;

LAND O LAKES   SUNNY     72  56  58 SW7       29.95S
6HR MIN TEMP:  64; 6HR MAX TEMP:  79; 6HR PCP:  0.02;

PHILLIPS       SUNNY     76  57  52 W7        29.96S
6HR MIN TEMP:  65; 6HR MAX TEMP:  79;

TOMAHAWK       MOSUNNY   68  62  82 CALM      29.97F
6HR MIN TEMP:  58; 6HR MAX TEMP:  80;

MEDFORD        SUNNY     76  58  52 W10       29.98F
6HR MIN TEMP:  76; 6HR MAX TEMP:  80;

MERRILL        NOT AVBL
$$

WIZ029-030-035-036-043>047-310100-
CENTRAL WISCONSIN

CITY           SKY/WX    TMP DP  RH WIND       PRES   REMARKS
WAUSAU         CLOUDY    73  55  53 N6        29.96R
6HR MIN TEMP:  72; 6HR MAX TEMP:  85;

MOSINEE        MOSUNNY   79  54  41 W20G28    29.98F
MARSHFIELD     MOSUNNY   79  54  41 W14       29.99S
6HR MIN TEMP:  77; 6HR MAX TEMP:  84;

STEVENS POINT  MOSUNNY   79  54  42 W15G22    29.98S
6HR MIN TEMP:  78; 6HR MAX TEMP:  82;

WAUPACA        SUNNY     83  51  33 W9G18     29.96S HX  81
6HR MIN TEMP:  83; 6HR MAX TEMP:  87;

WAUTOMA        MOSUNNY   84  52  33 NW14G20   29.97S HX  82
6HR MIN TEMP:  84; 6HR MAX TEMP:  89;

WISC RAPIDS    MOSUNNY   82  51  34 NW14G22   29.99S HX  81
6HR MIN TEMP:  82; 6HR MAX TEMP:  88;

CAMP DOUGLAS   SUNNY     80  59  49 W12       29.99F HX  80
6HR MIN TEMP:  80; 6HR MAX TEMP:  85;

$$

WIZ011>013-019>022-031-037>040-048>050-310100-
NORTHEAST WISCONSIN

CITY           SKY/WX    TMP DP  RH WIND       PRES   REMARKS
ANTIGO         PTSUNNY   67  61  80 W3        29.98F
SHAWANO        MOSUNNY   78  56  46 W3        29.94S
6HR MIN TEMP:  78; 6HR MAX TEMP:  86;

OCONTO         MOSUNNY   81  58  45 W10G16    29.91R HX  81
6HR MIN TEMP:  80; 6HR MAX TEMP:  87;

STURGEON BAY   PTSUNNY   73  57  56 SW8G29    29.93S
6HR MIN TEMP:  73; 6HR MAX TEMP:  84;

GREEN BAY      MOSUNNY   79  60  52 W8        29.93S HX  80
6HR MIN TEMP:  77; 6HR MAX TEMP:  86; 6HR PCP:  0.01;

MANITOWOC      MOSUNNY   81  52  36 MISG      29.93S HX  80
6HR MIN TEMP:  81; 6HR MAX TEMP:  87;

APPLETON       MOSUNNY   81  48  32 W15G21    29.95F HX  80
CLINTONVILLE   PTSUNNY   77  52  41 NW7       29.94S
OSHKOSH        SUNNY     82  53  36 W14G20    29.95S HX  81
6HR MIN TEMP:  82; 6HR MAX TEMP:  86;

$$

WIZ032>034-041-042-053>061-310100-
SOUTHWEST WISCONSIN

CITY           SKY/WX    TMP DP  RH WIND       PRES   REMARKS
LA CROSSE      SUNNY     83  57  41 W12       30.00F HX  82
6HR MIN TEMP:  83; 6HR MAX TEMP:  87;

SPARTA         SUNNY     82  53  36 W7        30.01F HX  81
6HR MIN TEMP:  82; 6HR MAX TEMP:  86;

VIROQUA        SUNNY     78  55  44 W7        30.04F
6HR MIN TEMP:  78; 6HR MAX TEMP:  83;

BOSCOBEL       SUNNY     84  56  38 W8        30.02F HX  83
6HR MIN TEMP:  84; 6HR MAX TEMP:  91;

PRAIRIE DU CHI SUNNY     83  51  31 W9        30.02F HX  82
6HR MIN TEMP:  83; 6HR MAX TEMP:  89;

PLATTEVILLE    SUNNY     81  59  46 W8        30.04S HX  81
6HR MIN TEMP:  81; 6HR MAX TEMP:  85;

$$

WIZ056-057-062-063-064-067-068-310100-
SOUTH CENTRAL WISCONSIN

CITY           SKY/WX    TMP DP  RH WIND       PRES   REMARKS
REEDSBURG      SUNNY     82  55  38 W10       29.99F HX  81
6HR MIN TEMP:  82; 6HR MAX TEMP:  87;

BARABOO/DELLS  SUNNY     82  47  29 W12G18    30.00S HX  80
6HR MIN TEMP:  82; 6HR MAX TEMP:  87;

LONE ROCK      SUNNY     83  54  36 NW10      30.01S HX  82
6HR MIN TEMP:  83; 6HR MAX TEMP:  88;

MINERAL POINT  SUNNY     82  50  32 W9G16     30.04S HX  81
MADISON        SUNNY     83  54  36 W8G20     29.99F HX  82
6HR MIN TEMP:  83; 6HR MAX TEMP:  86;

MIDDLETON      SUNNY     83  49  31 W9G16     30.01S HX  81
6HR MIN TEMP:  83; 6HR MAX TEMP:  89;

WATERTOWN      SUNNY     81  56  42 W9        29.98S HX  81
6HR MIN TEMP:  81; 6HR MAX TEMP:  85;

MONROE         SUNNY     81  54  39 W12G17    30.02F HX  80
JANESVILLE     SUNNY     84  52  32 W12G17    29.99F HX  82
$$

WIZ051-052-058>065-066-070>072-310100-
SOUTHEAST WISCONSIN

CITY           SKY/WX    TMP DP  RH WIND       PRES   REMARKS
MILWAUKEE      MOSUNNY   86  49  27 NW14      29.96F HX  83
6HR MIN TEMP:  85; 6HR MAX TEMP:  88;

WAUKESHA       SUNNY     81  52  36 W16       29.99F HX  80
MILWAUKEE/TIMM SUNNY     82  45  26 W20       29.97F HX  80
RACINE         SUNNY     84  53  34 W7        29.98F HX  82
6HR MIN TEMP:  84; 6HR MAX TEMP:  87;

BURLINGTON     SUNNY     81  51  35 W8        29.99S HX  80
6HR MIN TEMP:  81; 6HR MAX TEMP:  85;

KENOSHA        SUNNY     82  56  40 W9        29.98F HX  82
6HR MIN TEMP:  82; 6HR MAX TEMP:  86;

FOND DU LAC    SUNNY     82  55  39 W12       29.95F HX  81
6HR MIN TEMP:  82; 6HR MAX TEMP:  88;

SHEBOYGAN      SUNNY     82  54  37 W10       29.94S HX  81
6HR MIN TEMP:  82; 6HR MAX TEMP:  86;

WEST BEND      SUNNY     82  46  28 W9G17     29.97S HX  81
JUNEAU         SUNNY     80  53  39 W9        29.98F HX  80
6HR MIN TEMP:  80; 6HR MAX TEMP:  83;

$$

LSZ147-162-310100-
LAKE SUPERIOR

STATION/POSITION TIME  TEMP    WIND        PRES    WAVE
                       AIR SEA DIR/SP/G            HT/PER
                 (UTC) (F)     (DEG/KT/KT) (MB)    (FT/S)
W MID LAKE BUOY  2350   62 54  290/ 10/ 16 1010.7R   2/ 4
DEVILS ISLAND    0000   71     250/  3/  4 1011.2F
PORT WING        2300   76     250/ 14/ 18 1012.2F
SAXON HARBOR     2300   78                 1011.9F
$$

LMZ867-665-643>646-310100-
LAKE MICHIGAN

STATION/POSITION TIME  TEMP    WIND        PRES    WAVE
                       AIR SEA DIR/SP/G            HT/PER
                 (UTC) (F)     (DEG/KT/KT) (MB)    (FT/S)
CHAMBERS ISLAND  2300   76     230/  3/  6 1011.9S


USA.gov is the U.S. government's official web portal to all federal, state and local government web resources and services.